CW6238 Weather Reports


Display with metric or nautical units.
time (UTC)temp
F
wind
direction
speed
MPH
gust
MPH
rain 1hr
in
rain 24hr
in
rain mn
in
humidity
%
barometer
mb
20260508173519 54 113 2.0 4.0 0.00 0.00 0.00 31 1021.4
20260508172519 55 0.0 1.0 0.00 0.00 0.00 31 1021.4
20260508171519 54 113 2.0 3.0 0.00 0.00 0.00 32 1021.2
20260508170519 55 113 1.0 4.0 0.00 0.00 0.00 31 1021.3
20260508165519 55 135 2.0 5.0 0.00 0.00 0.00 31 1021.3
20260508164519 56 113 2.0 6.0 0.00 0.00 0.00 31 1021.3
20260508163519 56 158 1.0 4.0 0.00 0.00 0.00 29 1021.3
20260508162519 56 135 1.0 4.0 0.00 0.00 0.00 30 1021.2
20260508161539 56 135 2.0 5.0 0.00 0.00 0.00 28 1021.3
20260508160519 56 90 2.0 5.0 0.00 0.00 0.00 28 1021.3
20260508155540 56 135 2.0 5.0 0.00 0.00 0.00 28 1021.3
20260508154519 56 135 3.0 8.0 0.00 0.00 0.00 28 1021.3
20260508153519 56 135 3.0 8.0 0.00 0.00 0.00 28 1021.4
20260508152519 57 135 1.0 6.0 0.00 0.00 0.00 28 1021.4
20260508151519 57 45 2.0 7.0 0.00 0.00 0.00 28 1021.4
20260508150519 56 113 2.0 7.0 0.00 0.00 0.00 28 1021.4
20260508145520 57 135 3.0 7.0 0.00 0.00 0.00 27 1021.4
20260508144519 57 158 1.0 6.0 0.00 0.00 0.00 28 1021.5
20260508143539 56 135 2.0 8.0 0.00 0.00 0.00 29 1021.5
20260508142519 56 135 3.0 8.0 0.00 0.00 0.00 29 1021.4
20260508141519 56 45 3.0 8.0 0.00 0.00 0.00 30 1021.4
20260508140540 56 135 4.0 9.0 0.00 0.00 0.00 29 1021.5
20260508135520 56 135 3.0 8.0 0.00 0.00 0.00 29 1021.5
20260508134518 56 135 4.0 8.0 0.00 0.00 0.00 31 1021.6
20260508133519 56 135 2.0 7.0 0.00 0.00 0.00 30 1021.6
20260508132522 56 135 2.0 5.0 0.00 0.00 0.00 31 1021.5
20260508131520 56 135 4.0 10.0 0.00 0.00 0.00 31 1021.7
20260508130519 56 158 2.0 11.0 0.00 0.00 0.00 32 1021.6
20260508125519 57 135 3.0 11.0 0.00 0.00 0.00 31 1021.6
20260508124519 58 135 3.0 10.0 0.00 0.00 0.00 30 1021.7
20260508123519 57 135 3.0 8.0 0.00 0.00 0.00 30 1021.6
20260508122519 58 158 4.0 9.0 0.00 0.00 0.00 30 1021.6
20260508121519 58 135 4.0 11.0 0.00 0.00 0.00 27 1021.6
20260508120519 58 135 3.0 8.0 0.00 0.00 0.00 28 1021.5
20260508115518 59 45 2.0 7.0 0.00 0.00 0.00 29 1021.5
20260508114559 59 135 3.0 8.0 0.00 0.00 0.00 30 1021.5
20260508113540 58 135 3.0 8.0 0.00 0.00 0.00 32 1021.5
20260508112519 58 225 2.0 6.0 0.00 0.00 0.00 31 1021.4
20260508111523 58 113 3.0 7.0 0.00 0.00 0.00 30 1021.5
20260508110519 58 113 3.0 10.0 0.00 0.00 0.00 32 1021.5
20260508105539 58 135 2.0 6.0 0.00 0.00 0.00 32 1021.5
20260508104524 58 68 5.0 11.0 0.00 0.00 0.00 32 1021.4
20260508103520 58 135 2.0 6.0 0.00 0.00 0.00 33 1021.5
20260508102539 58 135 2.0 7.0 0.00 0.00 0.00 32 1021.3
20260508101519 58 158 2.0 7.0 0.00 0.00 0.00 34 1021.4
20260508100519 57 68 2.0 5.0 0.00 0.00 0.00 33 1021.4
20260508095519 57 135 3.0 7.0 0.00 0.00 0.00 33 1021.5
20260508094519 57 135 3.0 7.0 0.00 0.00 0.00 34 1021.5
20260508093539 57 135 3.0 10.0 0.00 0.00 0.00 34 1021.5
20260508092539 57 135 4.0 11.0 0.00 0.00 0.00 33 1021.6
20260508091519 56 113 2.0 9.0 0.00 0.00 0.00 33 1021.5
20260508090538 56 135 3.0 9.0 0.00 0.00 0.00 32 1021.6
20260508085519 57 45 2.0 5.0 0.00 0.00 0.00 31 1021.5
20260508084519 56 158 2.0 6.0 0.00 0.00 0.00 32 1021.6
20260508083518 56 135 2.0 6.0 0.00 0.00 0.00 33 1021.6
20260508082519 56 113 1.0 4.0 0.00 0.00 0.00 34 1021.6
20260508081519 55 248 2.0 7.0 0.00 0.00 0.00 35 1021.5
20260508080538 55 90 2.0 6.0 0.00 0.00 0.00 35 1021.4
20260508075518 55 45 2.0 7.0 0.00 0.00 0.00 35 1021.4
20260508074542 54 45 2.0 5.0 0.00 0.00 0.00 36 1021.3
20260508073519 54 68 1.0 4.0 0.00 0.00 0.00 38 1021.3
20260508072518 54 203 2.0 6.0 0.00 0.00 0.00 38 1021.1
20260508071518 53 68 2.0 6.0 0.00 0.00 0.00 38 1021.0
20260508070518 53 135 2.0 7.0 0.00 0.00 0.00 39 1021.0
20260508065518 52 135 2.0 6.0 0.00 0.00 0.00 39 1021.0
20260508064519 52 135 2.0 6.0 0.00 0.00 0.00 40 1020.9
20260508063519 51 113 1.0 5.0 0.00 0.00 0.00 42 1020.8
20260508062519 51 135 2.0 5.0 0.00 0.00 0.00 41 1020.7
20260508061539 50 113 1.0 5.0 0.00 0.00 0.00 45 1020.6
20260508060518 50 135 1.0 4.0 0.00 0.00 0.00 45 1020.5
20260508055519 49 135 1.0 6.0 0.00 0.00 0.00 48 1020.5
20260508054518 48 135 1.0 6.0 0.00 0.00 0.00 49 1020.4
20260508053518 47 90 1.0 3.0 0.00 0.00 0.00 54 1020.2
20260508052519 46 90 2.0 6.0 0.00 0.00 0.00 55 1020.2
20260508051538 45 45 1.0 4.0 0.00 0.00 0.00 58 1020.2
20260508050539 45 0.0 3.0 0.00 0.00 0.00 59 1020.2
20260508045518 44 0.0 1.0 0.00 0.00 0.00 63 1020.0
20260508044520 41 0.0 0.0 0.00 0.00 0.00 76 1019.8
20260508043520 38 0.0 0.0 0.00 0.00 0.00 86 1019.8
20260508042520 35 0.0 0.0 0.00 0.00 0.00 90 1019.6
20260508041518 32 0.0 0.0 0.00 0.00 0.00 90 1019.5
20260508040518 31 0.0 0.0 0.00 0.00 0.00 91 1019.4
20260508035519 31 0.0 0.0 0.00 0.00 0.00 91 1019.3
20260508034520 30 0.0 0.0 0.00 0.00 0.00 91 1019.3
20260508033541 29 0.0 0.0 0.00 0.00 0.00 91 1019.1
20260508032538 29 0.0 0.0 0.00 0.00 0.00 91 1019.0
20260508031518 29 0.0 0.0 0.00 0.00 0.00 90 1018.9
20260508030539 29 0.0 0.0 0.00 0.00 0.00 90 1018.7
20260508025538 29 0.0 0.0 0.00 0.00 0.00 90 1018.7
20260508024520 29 0.0 0.0 0.00 0.00 0.00 90 1018.6
20260508023521 28 0.0 0.0 0.00 0.00 0.00 89 1018.6
20260508022520 28 0.0 0.0 0.00 0.00 0.00 88 1018.4
20260508021539 29 0.0 0.0 0.00 0.00 0.00 88 1018.4
20260508020520 29 0.0 0.0 0.00 0.00 0.00 87 1018.4
20260508015518 29 0.0 0.0 0.00 0.00 0.00 87 1018.3
20260508014518 29 0.0 0.0 0.00 0.00 0.00 86 1018.2
20260508013518 30 0.0 0.0 0.00 0.00 0.00 86 1018.2
20260508012520 30 0.0 0.0 0.00 0.00 0.00 86 1018.1
20260508011520 29 0.0 0.0 0.00 0.00 0.00 86 1018.0
20260508010520 30 0.0 0.0 0.00 0.00 0.00 85 1017.8
20260508005520 30 0.0 0.0 0.00 0.00 0.00 85 1017.8
20260508004518 30 0.0 0.0 0.00 0.00 0.00 85 1017.7
20260508003524 30 0.0 0.0 0.00 0.00 0.00 84 1017.6
20260508002540 31 0.0 0.0 0.00 0.00 0.00 84 1017.4
20260508001520 30 0.0 0.0 0.00 0.00 0.00 84 1017.3
20260508000520 30 0.0 0.0 0.00 0.00 0.00 83 1017.1
20260507235520 31 0.0 0.0 0.00 0.00 0.00 82 1017.1
20260507234520 31 0.0 0.0 0.00 0.00 0.00 82 1017.1
20260507233523 32 0.0 0.0 0.00 0.00 0.00 81 1017.1
20260507232519 32 0.0 0.0 0.00 0.00 0.00 80 1016.9
20260507231521 32 0.0 0.0 0.00 0.00 0.00 80 1016.9
20260507230520 32 0.0 0.0 0.00 0.00 0.00 79 1016.8
20260507225520 33 0.0 0.0 0.00 0.00 0.00 78 1016.7
20260507224520 33 0.0 0.0 0.00 0.00 0.00 76 1016.6
20260507223520 33 0.0 0.0 0.00 0.00 0.00 76 1016.6
20260507222519 33 0.0 0.0 0.00 0.00 0.00 74 1016.5
20260507221521 34 0.0 0.0 0.00 0.00 0.00 73 1016.4
20260507220520 33 0.0 0.0 0.00 0.00 0.00 73 1016.4
20260507215520 34 0.0 0.0 0.00 0.00 0.00 72 1016.2
20260507214520 34 0.0 0.0 0.00 0.00 0.00 71 1016.2
20260507213540 34 0.0 0.0 0.00 0.00 0.00 69 1016.1
20260507212519 35 0.0 0.0 0.00 0.00 0.00 67 1016.0
20260507211519 36 0.0 0.0 0.00 0.00 0.00 65 1015.9
20260507210519 36 0.0 0.0 0.00 0.00 0.00 65 1015.9
20260507205519 37 0.0 0.0 0.00 0.00 0.00 63 1015.8
20260507204519 37 0.0 0.0 0.00 0.00 0.00 61 1015.6
20260507203600 38 0.0 0.0 0.00 0.00 0.00 60 1015.6
20260507202520 39 0.0 0.0 0.00 0.00 0.00 58 1015.5
20260507201520 39 0.0 0.0 0.00 0.00 0.00 58 1015.3
20260507200519 39 0.0 0.0 0.00 0.00 0.00 56 1015.3
20260507195519 40 0.0 0.0 0.00 0.00 0.00 54 1015.1
20260507194520 41 0.0 0.0 0.00 0.00 0.00 51 1015.1
20260507193519 42 0.0 0.0 0.00 0.00 0.00 49 1015.0
20260507192519 43 0.0 0.0 0.00 0.00 0.00 48 1014.8
20260507191523 44 0.0 0.0 0.00 0.00 0.00 46 1014.6
20260507190519 45 0.0 0.0 0.00 0.00 0.00 46 1014.5
20260507185520 46 0.0 2.0 0.00 0.00 0.00 44 1014.3
20260507184520 47 0.0 0.0 0.00 0.00 0.00 44 1014.2
20260507183523 48 0.0 1.0 0.00 0.00 0.00 41 1014.0
20260507182519 48 0.0 1.0 0.00 0.00 0.00 38 1013.8
20260507181520 49 0.0 0.0 0.00 0.00 0.00 35 1013.7
20260507180523 50 0.0 2.0 0.00 0.00 0.00 32 1013.5
20260507175559 51 135 2.0 6.0 0.00 0.00 0.00 28 1013.3
20260507174519 51 0.0 2.0 0.00 0.00 0.00 27 1013.2